• Join FlightAware (Why Join?)
  • Login
  • US Flag 
04:24AM EST


 

Airport Tracker/Info


-or-


 

Live Flight TrackerFlight Track Log ✈ TRS297 ✈ 16-May-2013 ✈ KFLL - KBWI

Flight Track Log - Related Links

Times and Time Zones

All times are in EDT time to prevent confusion due to time zone crossing. See the TRS297 flight status page for this flight to view local times or setup timezone preferences in your user account.

Time Position Orientation Groundspeed Altitude Reporting Facility
EDT Latitude Longitude Course Direction KTS MPH feet Rate Location/Type
07:39PM 26.0750 -80.1319 83° East 200 230 900  Level Miami Center
07:41PM 26.0856 -80.0306 83° East 250 288 3,500 1,800 Climbing Miami Center
07:42PM 26.1164 -79.9575 65° Northeast 259 298 5,800 1,920 Climbing Miami Center
07:44PM 26.1731 -79.8431 61° Northeast 282 325 8,500 1,680 Climbing Miami Center
07:45PM 26.2125 -79.7583 63° Northeast 294 338 10,200 1,320 Climbing Miami Center
07:46PM 26.2581 -79.6644 62° Northeast 312 359 11,200 1,200 Climbing Miami Center
07:47PM 26.3286 -79.5828 46° Northeast 348 400 12,600 1,620 Climbing Miami Center
07:48PM 26.4322 -79.5225 28° Northeast 361 415 14,500 1,680 Climbing Miami Center
07:49PM 26.5186 -79.4733 27° Northeast 378 435 16,000 1,500 Climbing Miami Center
07:50PM 26.6264 -79.4106 28° Northeast 383 441 17,600 1,320 Climbing Miami Center
07:51PM 26.7169 -79.3544 29° Northeast 398 458 18,700 1,320 Climbing Miami Center
07:52PM 26.8244 -79.2964 26° Northeast 419 482 20,300 1,500 Climbing Miami Center
07:53PM 26.9319 -79.2356 27° Northeast 419 482 21,700 1,260 Climbing Miami Center
07:54PM 27.0397 -79.1703 28° Northeast 424 488 22,900 1,260 Climbing Miami Center
07:55PM 27.1639 -79.0978 27° Northeast 442 509 24,300 1,200 Climbing Miami Center
07:56PM 27.2819 -79.0394 24° Northeast 454 522 25,400 1,140 Climbing Miami Center
07:57PM 27.3992 -79.0206 North 455 524 26,600 1,080 Climbing Miami Center
07:58PM 27.5414 -78.9975 North 463 533 27,600 1,140 Climbing Miami Center
07:59PM 27.6692 -78.9786 North 469 540 28,900 1,440 Climbing Miami Center
08:00PM 27.7989 -78.9600 North 463 533 30,500 1,380 Climbing Miami Center
08:01PM 27.9181 -78.9411 North 458 527 31,700 1,140 Climbing Miami Center
08:02PM 28.0458 -78.9222 North 447 514 32,800 600 Climbing Miami Center
08:03PM 28.1714 -78.9011 North 447 514 33,000 60 Climbing Miami Center
08:04PM 28.2967 -78.8844 North 452 520 33,000  Level Miami Center
08:05PM 28.4244 -78.8653 North 452 520 33,000  Level Miami Center
08:06PM 28.5500 -78.8417 North 452 520 33,000  Level Miami Center
08:07PM 28.6753 -78.8250 North 447 514 33,000  Level Miami Center
08:08PM 28.8008 -78.8036 North 447 514 33,000  Level Miami Center
08:09PM 28.9181 -78.7867 North 459 528 33,000  Level Miami Center
08:10PM 29.0433 -78.7650 North 459 528 33,000  Level Miami Center
08:11PM 29.1669 -78.7433 North 459 528 33,000  Level Miami Center
08:12PM 29.3006 -78.7289 North 459 528 33,000  Level Miami Center
08:13PM 29.4281 -78.7097 North 459 528 33,000  Level Miami Center
08:14PM 29.5514 -78.6903 North 459 528 33,000  Level Miami Center
08:15PM 29.6767 -78.6661 10° North 459 528 33,000  Level Miami Center
08:16PM 29.8083 -78.6492 North 464 534 33,000  Level Miami Center
08:17PM 29.9378 -78.6297 North 467 537 33,000  Level Miami Center
08:17PM 29.9883 -78.6194 10° North 467 537 33,000  Level Jacksonville Center
08:18PM 30.1125 -78.5925 11° North 465 535 33,000  Level Jacksonville Center
08:19PM 30.2433 -78.5722 North 465 535 33,000  Level Jacksonville Center
08:20PM 30.3700 -78.5519 North 467 537 33,000  Level Jacksonville Center
08:21PM 30.4986 -78.5292 North 464 534 33,000  Level Jacksonville Center
08:22PM 30.6253 -78.5114 North 457 526 33,000  Level Jacksonville Center
08:23PM 30.7539 -78.4886 North 475 547 33,000  Level Jacksonville Center
08:24PM 30.8828 -78.4681 North 467 537 33,000  Level Jacksonville Center
08:25PM 31.0156 -78.4472 North 463 533 33,000  Level Jacksonville Center
08:26PM 31.1297 -78.4272 North 466 536 33,000  Level Jacksonville Center
08:27PM 31.2586 -78.4089 North 458 527 33,000  Level Jacksonville Center
08:28PM 31.3869 -78.3833 10° North 463 533 33,000  Level Jacksonville Center
08:29PM 31.5158 -78.3650 North 463 533 33,000  Level Jacksonville Center
08:30PM 31.6444 -78.3417 North 463 533 33,000  Level Jacksonville Center
08:31PM 31.7731 -78.3206 North 463 533 33,000  Level Jacksonville Center
08:32PM 31.9058 -78.2969 North 463 533 33,000  Level Jacksonville Center
08:33PM 32.0406 -78.2731 North 469 540 33,000  Level Jacksonville Center
08:34PM 32.1672 -78.2544 North 469 540 33,000  Level Jacksonville Center
08:35PM 32.2936 -78.2333 North 469 540 33,000  Level Jacksonville Center
08:36PM 32.4242 -78.2019 11° North 469 540 33,000  Level Jacksonville Center
08:37PM 32.5550 -78.1853 North 469 540 33,000  Level Jacksonville Center
08:38PM 32.6856 -78.1636 North 464 534 33,000  Level Jacksonville Center
08:39PM 32.8139 -78.1372 10° North 464 534 33,000  Level Jacksonville Center
08:40PM 32.9447 -78.1178 North 464 534 33,000  Level Jacksonville Center
08:41PM 33.0753 -78.0936 North 464 534 33,000  Level Jacksonville Center
08:42PM 33.2039 -78.0719 North 464 534 33,000  Level Jacksonville Center
08:44PM 33.4858 -78.0267 North 484 557 33,000  Level Washington Center
08:45PM 33.6136 -78.0031 North 479 551 33,000  Level Washington Center
08:46PM 33.7433 -77.9817 North 469 540 33,000  Level Washington Center
08:47PM 33.8689 -77.9603 North 463 533 33,000  Level Washington Center
08:48PM 34.0028 -77.9342 North 475 547 33,000  Level Washington Center
08:49PM 34.1306 -77.9178 North 475 547 33,000  Level Washington Center
08:50PM 34.2583 -77.8911 10° North 468 539 33,000  Level Washington Center
08:51PM 34.4047 -77.8725 North 473 544 33,000  Level Washington Center
08:52PM 34.5342 -77.8586 North 467 537 33,000  Level Washington Center
08:53PM 34.6617 -77.8469 North 462 532 33,000  Level Washington Center
08:54PM 34.7914 -77.8328 North 462 532 33,000  Level Washington Center
08:55PM 34.9064 -77.8156 North 456 525 33,000  Level Washington Center
08:56PM 35.0381 -77.8042 North 462 532 33,000  Level Washington Center
08:57PM 35.1656 -77.7897 North 462 532 33,000  Level Washington Center
08:58PM 35.2933 -77.7756 North 462 532 33,000  Level Washington Center
08:59PM 35.4228 -77.7611 North 462 532 33,000  Level Washington Center
09:00PM 35.5503 -77.7492 North 462 532 33,000  Level Washington Center
09:01PM 35.6778 -77.7347 North 462 532 33,000  Level Washington Center
09:02PM 35.8053 -77.7203 North 462 532 33,000 -540 Level Washington Center
09:03PM 35.9311 -77.6956 North 462 532 32,000 -1,260 Descending Washington Center
09:04PM 36.0567 -77.6656 11° North 457 526 30,500 -1,500 Descending Washington Center
09:05PM 36.1992 -77.6331 10° North 465 535 29,000 -780 Descending Washington Center
09:06PM 36.3228 -77.6028 11° North 465 535 29,000  Level Washington Center
09:07PM 36.4442 -77.5750 10° North 459 528 29,000  Level Washington Center
09:08PM 36.5678 -77.5469 10° North 452 520 29,000  Level Washington Center
09:09PM 36.6936 -77.5167 11° North 452 520 29,000  Level Washington Center
09:10PM 36.8150 -77.4858 11° North 447 514 29,000 -300 Level Washington Center
09:11PM 36.9344 -77.4575 11° North 447 514 28,400 -540 Descending Washington Center
09:12PM 37.0578 -77.4294 10° North 447 514 28,000 -240 Descending Washington Center
09:13PM 37.1794 -77.4008 11° North 447 514 28,000 -300 Level Washington Center
09:14PM 37.3008 -77.3700 11° North 447 514 27,400 -1,620 Descending Washington Center
09:15PM 37.4200 -77.3411 11° North 442 509 24,900 -2,220 Descending Washington Center
09:16PM 37.5353 -77.3125 11° North 429 494 23,000 -960 Descending Washington Center
09:17PM 37.6439 -77.2914 North 408 470 23,000  Level Washington Center
09:18PM 37.7547 -77.2675 10° North 408 470 23,000  Level Washington Center
09:19PM 37.8678 -77.2436 North 408 470 23,000  Level Washington Center
09:20PM 37.9808 -77.2225 North 408 470 23,000 -720 Level Washington Center
09:21PM 38.0811 -77.2036 North 408 470 21,600 -1,920 Descending Washington Center
09:22PM 38.1878 -77.1819 North 408 470 19,200 -2,460 Descending Washington Center
09:23PM 38.3028 -77.1528 11° North 389 448 16,800 -2,280 Descending Washington Center
09:24PM 38.3867 -77.1228 16° North 363 418 14,800 -1,740 Descending Washington Center
09:25PM 38.4586 -77.0208 48° Northeast 353 406 13,400 -1,320 Descending Washington Center
09:26PM 38.5267 -76.9214 49° Northeast 353 406 12,100 -1,320 Descending Washington Center
09:27PM 38.5881 -76.8319 49° Northeast 353 406 10,800 -1,320 Descending Washington Center
09:28PM 38.6431 -76.7478 50° Northeast 326 375 9,600 -1,320 Descending Washington Center
09:29PM 38.7000 -76.6689 47° Northeast 319 367 8,200 -1,500 Descending Washington Center
09:30PM 38.7500 -76.6000 47° Northeast 296 341 7,100 -1,380 Descending Potomac TRACON
09:31PM 38.8000 -76.5333 46° Northeast 286 329 5,900 -1,140 Descending Potomac TRACON
09:32PM 38.8833 -76.5500 351° North 259 298 4,800 -1,140 Descending Potomac TRACON
09:33PM 38.9500 -76.5667 349° North 251 289 3,500 -1,260 Descending Potomac TRACON
09:34PM 39.0167 -76.5833 349° North 250 288 2,400 -1,080 Descending Potomac TRACON
09:35PM 39.0833 -76.6000 349° North 231 266 1,500 -600 Descending Potomac TRACON
09:36PM 39.1167 -76.6167 339° North 140 161 1,200 -480 Descending Potomac TRACON
09:37PM 39.1500 -76.6500 322° Northwest 125 144 600 -600 Descending Potomac TRACON
09:39PM 39.1667 -76.6667 339° North  Level FlightAware Approximate
09:46PM 39.1754 -76.6683 339° North  Level Estimated
09:47PM 39.1754 -76.6683 339° North  Level Estimated
09:48PM 39.1754 -76.6683 339° North  Level Estimated